Snowfall_Accumulation
0.0 0.0 0.0 0.0 0.0 0.0 0.0 0.0 0.0 0.0 0.0 0.0 0.0 0.0 0.0 0.0 0.0 0.0 0.0 0.0 0.0 0.0 0.0 0.0 0.0 0.0 0.0 0.0 0.0 0.0 0.0 0.0 0.0 0.0 0.0 0.0 0.0 0.0 0.0 0.0 0.0 0.0 0.0 0.0
0.0 0.0 0.0 0.0 0.0 0.0 0.0 0.0 0.0 0.0 0.0 0.0 0.0 0.0 0.0 0.0 0.0 0.0 0.0 0.0 0.0 0.0 0.0 0.0 0.0 0.0 0.0 0.0 0.0 0.0 0.0 0.0 0.0 0.0 0.0 0.0 0.0 0.0 0.0 0.0 0.0 0.0 0.0 0.0
0.0 0.0 0.0 0.0 0.0 0.0 0.0 0.0 0.0 0.0 0.0 0.0 0.0 0.0 0.0 0.0 0.0 0.0 0.0 0.0 0.0 0.0 0.0 0.0 0.0 0.0 0.0 0.0 0.0 0.0 0.0 0.0 0.0 0.0 0.0 0.0 0.0 0.0 0.0 0.0 0.0 0.0 0.0 0.0
0.0 0.0 0.0 0.0 0.0 0.0 0.0 0.0 0.0 0.0 0.0 0.0 0.0 0.1 0.0 0.0 0.0 0.0 0.0 0.0 0.0 0.0 0.0 0.0 0.0 0.0 0.0 0.0 0.0 0.0 0.0 0.0 0.0 0.0 0.0 0.0 0.0 0.0 0.0 0.0 0.0 0.0 0.0 0.0
0.0 0.0 0.0 0.0 0.0 0.0 0.0 0.0 0.0 0.0 0.0 0.0 0.0 0.0 0.0 0.0 0.0 0.0 0.0 0.0 0.0 0.0 0.0 0.0 0.0 0.0 0.0 0.0 0.0 0.0 0.0 0.0 0.0 0.0 0.0 0.0 0.0 0.0 0.0 0.0 0.0 0.0 0.0 0.0
0.0 0.0 0.0 0.0 0.0 0.0 0.0 0.0 0.0 0.0 0.0 0.3 0.0 0.0 0.0 0.0 0.0 0.0 0.0 0.0 0.0 0.0 0.0 0.0 0.0 0.0 0.0 0.0 0.0 0.0 0.0 0.0 0.0 0.0 0.0 0.0 0.0 0.0 0.0 0.0 0.0 0.0 0.0 0.0
0.0 0.0 0.0 0.0 0.0 0.0 0.0 0.0 0.6 1.1 2.7 1.4 0.0 0.2 0.0 0.0 0.0 0.0 0.0 0.0 0.0 0.0 0.0 0.0 0.0 0.0 0.0 0.0 0.0 0.0 0.0 0.0 0.0 0.0 0.0 0.0 0.0 0.0 0.0 0.0 0.0 0.0 0.0 0.0
0.0 0.0 0.0 0.0 0.0 0.0 0.0 0.0 1.2 4.3 3.1 1.2 0.2 0.6 0.0 0.0 0.0 0.0 0.0 0.0 0.0 0.0 0.0 0.0 0.0 0.0 0.0 0.0 0.0 0.0 0.0 0.0 0.0 0.0 0.0 0.0 0.0 0.0 0.0 0.0 0.0 0.0 0.0 0.0
0.0 0.0 0.0 0.0 0.0 0.0 0.0 0.0 0.0 0.7 5.7 4.6 0.1 0.0 0.0 0.0 0.0 0.0 0.0 0.0 0.0 0.0 0.0 0.0 0.0 0.0 0.0 0.0 0.0 0.0 0.0 0.0 0.0 0.0 0.0 0.0 0.0 0.0 0.0 0.0 0.0 0.0 0.0 0.0
0.0 0.1 0.0 0.0 0.0 0.0 0.0 0.0 0.6 0.7 6.2 4.7 0.0 0.0 0.0 0.0 0.0 0.0 0.0 0.0 0.0 0.0 0.0 0.0 0.0 0.0 0.0 0.0 0.0 0.0 0.0 0.0 0.0 0.0 0.0 0.0 0.0 0.0 0.0 0.0 0.0 0.0 0.0 0.0
0.0 0.0 0.0 0.0 0.0 0.0 0.0 0.0 0.0 0.0 0.7 4.0 3.3 0.5 0.0 0.0 0.0 0.0 0.0 0.0 0.0 0.0 0.0 0.0 0.0 0.0 0.0 0.0 0.0 0.0 0.0 0.0 0.0 0.0 0.0 0.0 0.0 0.0 0.0 0.0 0.0 0.0 0.0 0.0
0.0 0.0 0.8 0.0 0.0 0.0 0.0 0.0 0.0 1.5 1.0 0.9 2.8 2.0 0.0 0.0 0.0 0.0 0.0 0.0 0.0 0.0 0.0 0.0 0.0 0.0 0.0 0.0 0.0 0.0 0.0 0.0 0.0 0.0 0.0 0.0 0.0 0.0 0.0 0.0 0.0 0.0 0.0 0.0
0.0 0.4 2.4 1.0 0.1 0.0 0.0 0.0 0.0 0.0 0.4 2.3 6.1 1.7 0.0 0.0 0.0 0.0 0.0 0.0 0.0 0.0 0.0 0.0 0.0 0.0 0.0 0.0 0.0 0.0 0.0 0.0 0.0 0.0 0.0 0.0 0.0 0.0 0.0 0.0 0.0 0.1 0.1 0.1
nan 0.1 0.1 0.6 0.0 0.0 0.2 0.0 0.0 0.0 2.6 1.8 1.1 0.3 0.0 0.0 0.0 0.0 0.0 0.0 0.0 0.0 0.0 0.0 0.0 0.0 0.0 0.0 0.0 0.0 0.0 0.0 0.0 0.0 0.0 0.0 0.0 0.0 0.0 0.0 0.1 0.1 0.1 0.1
0.1 0.6 0.0 0.0 0.0 0.0 0.0 0.0 0.0 0.1 0.1 0.4 0.1 0.1 0.0 0.0 0.0 0.0 0.0 0.0 0.0 0.0 0.0 0.0 0.0 0.0 0.0 0.0 0.0 0.0 0.0 0.0 0.0 0.0 0.0 0.0 0.0 0.1 0.1 0.1 0.2 0.1 0.1 0.1
0.2 1.5 0.2 0.8 0.0 0.0 0.1 0.0 0.0 0.0 0.1 0.1 0.3 0.4 0.0 0.0 0.0 0.0 0.0 0.0 0.0 0.0 0.0 0.0 0.0 0.0 0.0 0.0 0.0 0.0 0.0 0.0 0.1 0.1 0.1 0.2 0.2 0.3 0.3 0.3 0.5 0.2 0.3 0.2
0.6 1.5 5.7 7.2 0.1 0.1 3.6 0.1 0.0 0.0 0.0 0.0 0.4 0.1 0.0 0.0 0.0 0.0 0.0 0.0 0.0 0.0 0.0 0.0 0.0 0.0 0.0 0.0 0.0 0.0 0.0 0.0 0.2 0.3 0.6 0.6 0.5 0.6 0.4 0.4 0.5 0.4 0.3 0.4
0.4 2.9 5.4 11.3 7.7 18.1 0.5 0.0 0.0 0.0 0.0 0.0 0.0 0.0 0.0 0.0 0.0 0.0 0.0 0.0 0.0 0.0 0.0 0.0 0.0 0.0 0.0 0.0 0.0 0.1 0.2 0.3 0.5 0.9 1.2 0.6 0.8 1.1 0.4 0.4 0.4 0.3 0.2 0.3
0.2 0.9 6.3 17.0 11.4 0.6 0.0 0.0 0.0 0.0 0.1 0.0 0.0 0.0 0.0 0.0 0.0 0.0 0.0 0.0 0.0 0.0 0.0 0.0 0.0 0.0 0.0 0.0 0.1 0.3 0.4 0.4 0.6 0.5 0.6 0.4 1.3 2.3 0.6 2.4 0.4 0.2 1.2 0.8
0.3 0.7 2.3 13.1 18.0 15.3 0.1 0.0 0.0 0.0 0.5 0.0 0.0 0.0 0.0 0.1 2.2 0.2 0.0 0.0 0.0 0.0 0.0 0.0 0.0 0.1 0.1 0.1 0.3 0.4 0.3 0.4 0.5 0.5 0.6 0.6 1.4 3.0 2.3 1.2 1.8 2.0 1.9 1.8
4.0 7.3 7.9 8.2 13.8 2.8 0.0 0.0 0.0 3.9 0.2 0.0 0.0 0.0 0.1 0.9 0.1 0.0 0.0 0.0 0.0 0.0 0.0 0.0 0.1 0.2 0.3 0.6 0.7 0.5 0.3 0.5 0.5 0.7 0.8 0.9 1.2 3.1 1.9 2.3 1.8 2.4 2.7 1.4
1.8 7.5 16.3 10.8 13.0 13.8 0.0 0.0 0.0 0.0 0.0 0.0 0.0 0.0 0.2 0.1 0.0 0.0 0.0 0.0 0.0 0.0 0.0 0.1 0.4 0.2 0.4 0.8 1.6 0.7 0.5 0.4 0.8 1.1 1.4 2.2 3.4 3.1 3.0 5.1 3.2 4.2 3.7 3.7
3.5 0.3 2.6 0.3 1.5 0.0 0.0 0.0 0.0 0.0 0.1 0.2 0.2 0.1 0.1 0.2 0.1 0.0 0.0 0.0 0.0 0.0 0.2 0.3 0.6 0.5 0.3 0.6 1.7 3.1 0.4 0.7 1.3 3.3 4.2 4.7 4.2 4.2 4.2 6.0 3.6 5.3 4.2 4.9
0.1 0.0 0.5 0.3 0.1 0.0 0.0 0.0 0.0 0.1 0.1 0.0 0.2 0.1 0.5 0.7 0.5 1.2 0.8 0.5 0.3 0.3 0.6 0.8 1.2 1.3 0.9 1.0 1.2 1.7 1.5 1.5 6.4 6.3 3.5 2.7 3.6 2.6 3.3 4.0 4.8 6.8 5.2 4.1
0.1 0.0 0.3 0.8 0.1 0.0 0.0 0.0 0.0 0.1 0.2 0.3 0.3 0.3 0.3 0.4 2.8 1.7 2.0 1.2 0.7 0.7 0.9 1.0 1.6 1.4 1.5 1.3 1.2 1.8 2.3 3.0 3.8 3.9 2.1 3.3 4.4 5.0 2.9 2.2 3.1 2.5 1.3 3.4
0.0 0.0 0.3 2.2 0.1 0.2 0.4 0.1 0.1 0.3 0.1 0.1 0.7 1.5 0.8 1.1 2.0 2.2 1.9 1.0 1.3 1.8 1.6 1.5 1.2 1.4 1.4 1.8 2.0 2.9 4.6 4.6 4.6 2.4 3.7 3.9 3.9 3.1 2.8 2.7 2.3 nan nan nan
Water_Equivalent
0.00 0.00 0.00 0.00 0.00 0.00 0.00 0.00 0.00 0.00 0.00 0.00 0.00 0.00 0.00 0.00 0.00 0.00 0.00 0.00 0.00 0.00 0.00 0.00 0.00 0.00 0.00 0.00 0.00 0.00 0.00 0.00 0.00 0.00 0.00 0.00 0.00 0.00 0.00 0.00 0.00 0.00 0.00 0.00
0.00 0.00 0.00 0.00 0.00 0.00 0.00 0.00 0.00 0.00 0.00 0.00 0.00 0.00 0.00 0.00 0.00 0.00 0.00 0.00 0.00 0.00 0.00 0.00 0.00 0.00 0.00 0.00 0.00 0.00 0.00 0.00 0.00 0.00 0.00 0.00 0.00 0.00 0.00 0.00 0.00 0.00 0.00 0.00
0.00 0.00 0.00 0.00 0.00 0.00 0.00 0.00 0.00 0.00 0.00 0.00 0.00 0.00 0.00 0.00 0.00 0.00 0.00 0.00 0.00 0.00 0.00 0.00 0.00 0.00 0.00 0.00 0.00 0.00 0.00 0.00 0.00 0.00 0.00 0.00 0.00 0.00 0.00 0.00 0.00 0.00 0.00 0.00
0.00 0.00 0.00 0.00 0.00 0.00 0.00 0.00 0.00 0.00 0.00 0.00 0.00 0.01 0.00 0.00 0.00 0.00 0.00 0.00 0.00 0.00 0.00 0.00 0.00 0.00 0.00 0.00 0.00 0.00 0.00 0.00 0.00 0.00 0.00 0.00 0.00 0.00 0.00 0.00 0.00 0.00 0.00 0.00
0.00 0.00 0.00 0.00 0.00 0.00 0.00 0.00 0.00 0.00 0.00 0.00 0.00 0.00 0.00 0.00 0.00 0.00 0.00 0.00 0.00 0.00 0.00 0.00 0.00 0.00 0.00 0.00 0.00 0.00 0.00 0.00 0.00 0.00 0.00 0.00 0.00 0.00 0.00 0.00 0.00 0.00 0.00 0.00
0.00 0.00 0.00 0.00 0.00 0.00 0.00 0.00 0.00 0.00 0.00 0.05 0.00 0.00 0.00 0.00 0.00 0.00 0.00 0.00 0.00 0.00 0.00 0.00 0.00 0.00 0.00 0.00 0.00 0.00 0.00 0.00 0.00 0.00 0.00 0.00 0.00 0.00 0.00 0.00 0.00 0.00 0.00 0.00
0.00 0.00 0.00 0.00 0.00 0.00 0.00 0.00 0.09 0.18 0.40 0.22 0.00 0.03 0.00 0.00 0.00 0.00 0.00 0.00 0.00 0.00 0.00 0.00 0.00 0.00 0.00 0.00 0.00 0.00 0.00 0.00 0.00 0.00 0.00 0.00 0.00 0.00 0.00 0.00 0.00 0.00 0.00 0.00
0.00 0.00 0.00 0.00 0.00 0.00 0.00 0.00 0.20 0.48 0.43 0.20 0.04 0.08 0.01 0.00 0.00 0.00 0.00 0.00 0.00 0.00 0.00 0.00 0.00 0.00 0.00 0.00 0.00 0.00 0.00 0.00 0.00 0.00 0.00 0.00 0.00 0.00 0.00 0.00 0.00 0.00 0.00 0.00
0.00 0.00 0.00 0.00 0.00 0.00 0.00 0.00 0.00 0.11 0.62 0.59 0.02 0.00 0.00 0.00 0.00 0.00 0.00 0.00 0.00 0.00 0.00 0.00 0.00 0.00 0.00 0.00 0.00 0.00 0.00 0.00 0.00 0.00 0.00 0.00 0.00 0.00 0.00 0.00 0.00 0.00 0.00 0.00
0.00 0.01 0.00 0.00 0.00 0.00 0.00 0.00 0.09 0.11 0.72 0.54 0.00 0.00 0.00 0.00 0.00 0.00 0.00 0.00 0.00 0.00 0.00 0.00 0.00 0.00 0.00 0.00 0.00 0.00 0.00 0.00 0.00 0.00 0.00 0.00 0.00 0.00 0.00 0.00 0.00 0.00 0.00 0.00
0.00 0.00 0.01 0.00 0.00 0.00 0.00 0.00 0.00 0.00 0.12 0.50 0.40 0.06 0.00 0.00 0.00 0.00 0.00 0.00 0.00 0.00 0.00 0.00 0.00 0.00 0.00 0.00 0.00 0.00 0.00 0.00 0.00 0.00 0.00 0.00 0.00 0.00 0.00 0.00 0.00 0.00 0.00 0.00
0.00 0.00 0.15 0.00 0.00 0.00 0.00 0.00 0.00 0.23 0.14 0.14 0.38 0.24 0.00 0.00 0.00 0.00 0.00 0.00 0.00 0.00 0.00 0.00 0.00 0.00 0.00 0.00 0.00 0.00 0.00 0.00 0.00 0.00 0.00 0.00 0.00 0.00 0.00 0.00 0.00 0.00 0.00 0.01
0.00 0.09 0.53 0.29 0.02 0.00 0.00 0.00 0.00 0.00 0.07 0.33 0.79 0.24 0.00 0.00 0.00 0.00 0.00 0.00 0.00 0.00 0.00 0.00 0.00 0.00 0.00 0.00 0.00 0.00 0.00 0.00 0.00 0.00 0.00 0.00 0.00 0.00 0.00 0.00 0.00 0.02 0.02 0.02
nan 0.01 0.02 0.13 0.01 0.00 0.03 0.00 0.00 0.01 0.43 0.35 0.20 0.07 0.00 0.00 0.00 0.00 0.00 0.00 0.00 0.00 0.00 0.00 0.00 0.00 0.00 0.00 0.00 0.00 0.00 0.00 0.00 0.00 0.00 0.00 0.00 0.00 0.00 0.01 0.02 0.03 0.02 0.02
0.02 0.09 0.01 0.01 0.00 0.00 0.00 0.01 0.00 0.02 0.02 0.06 0.02 0.02 0.00 0.00 0.00 0.00 0.00 0.00 0.00 0.00 0.00 0.00 0.00 0.00 0.00 0.00 0.00 0.00 0.00 0.00 0.00 0.00 0.00 0.00 0.01 0.02 0.03 0.03 0.03 0.03 0.03 0.02
0.03 0.28 0.04 0.23 0.00 0.00 0.01 0.00 0.00 0.00 0.01 0.02 0.06 0.09 0.00 0.00 0.00 0.00 0.00 0.00 0.00 0.01 0.00 0.00 0.00 0.00 0.00 0.00 0.00 0.00 0.00 0.00 0.01 0.01 0.02 0.03 0.04 0.07 0.06 0.06 0.09 0.05 0.05 0.04
0.10 0.39 0.83 1.07 0.02 0.02 0.45 0.03 0.00 0.00 0.00 0.00 0.12 0.04 0.00 0.00 0.01 0.00 0.01 0.00 0.01 0.00 0.00 0.00 0.00 0.00 0.00 0.00 0.00 0.00 0.00 0.01 0.03 0.05 0.11 0.12 0.08 0.11 0.08 0.07 0.09 0.07 0.07 0.07
0.05 0.44 0.82 1.62 1.04 1.99 0.12 0.00 0.00 0.00 0.00 0.00 0.00 0.00 0.00 0.01 0.00 0.00 0.00 0.00 0.00 0.00 0.00 0.00 0.00 0.00 0.00 0.00 0.00 0.01 0.03 0.05 0.08 0.15 0.22 0.10 0.14 0.17 0.06 0.06 0.07 0.06 0.04 0.06
0.03 0.13 0.89 1.98 1.41 0.14 0.01 0.00 0.00 0.01 0.01 0.00 0.00 0.00 0.00 0.00 0.00 0.00 0.00 0.00 0.00 0.00 0.00 0.00 0.00 0.00 0.00 0.01 0.01 0.04 0.06 0.06 0.09 0.08 0.09 0.06 0.20 0.34 0.09 0.36 0.07 0.05 0.22 0.16
0.03 0.09 0.30 1.61 1.97 1.63 0.01 0.00 0.00 0.00 0.07 0.00 0.00 0.00 0.00 0.01 0.17 0.02 0.00 0.00 0.00 0.00 0.00 0.00 0.00 0.01 0.02 0.02 0.04 0.06 0.04 0.05 0.07 0.07 0.08 0.07 0.20 0.43 0.34 0.20 0.29 0.36 0.35 0.33
0.47 0.87 0.96 1.06 1.62 0.46 0.00 0.00 0.00 0.45 0.03 0.00 0.00 0.00 0.01 0.08 0.01 0.00 0.00 0.00 0.00 0.00 0.00 0.00 0.02 0.02 0.03 0.06 0.08 0.06 0.04 0.05 0.05 0.06 0.07 0.11 0.16 0.45 0.28 0.34 0.31 0.39 0.44 0.24
0.19 0.77 1.73 1.19 1.41 1.56 0.00 0.00 0.00 0.00 0.00 0.00 0.00 0.00 0.02 0.01 0.00 0.00 0.00 0.00 0.00 0.00 0.00 0.01 0.05 0.03 0.05 0.09 0.15 0.08 0.06 0.04 0.07 0.11 0.14 0.30 0.49 0.45 0.47 0.82 0.51 0.68 0.59 0.59
0.40 0.04 0.34 0.06 0.30 0.00 0.00 0.00 0.00 0.00 0.02 0.03 0.04 0.01 0.01 0.02 0.01 0.00 0.00 0.00 0.00 0.00 0.04 0.05 0.07 0.06 0.04 0.07 0.17 0.27 0.04 0.07 0.15 0.51 0.72 0.72 0.64 0.64 0.63 0.95 0.56 0.84 0.70 0.83
0.03 0.00 0.12 0.08 0.02 0.00 0.00 0.00 0.00 0.01 0.02 0.01 0.03 0.01 0.05 0.04 0.04 0.15 0.11 0.06 0.04 0.04 0.07 0.09 0.14 0.16 0.10 0.11 0.13 0.14 0.13 0.17 1.12 1.04 0.51 0.40 0.52 0.40 0.50 0.70 0.83 1.17 0.89 0.69
0.02 0.01 0.06 0.18 0.03 0.02 0.01 0.00 0.00 0.01 0.03 0.05 0.04 0.04 0.01 0.03 0.28 0.19 0.19 0.13 0.07 0.07 0.09 0.11 0.16 0.13 0.14 0.12 0.11 0.17 0.20 0.36 0.60 0.64 0.29 0.48 0.71 0.81 0.45 0.35 0.49 0.42 0.23 0.61
0.00 0.00 0.05 0.27 0.01 0.03 0.06 0.01 0.02 0.04 0.01 0.01 0.07 0.14 0.09 0.14 0.16 0.16 0.16 0.09 0.11 0.15 0.15 0.15 0.12 0.12 0.11 0.14 0.17 0.26 0.53 0.54 0.57 0.32 0.53 0.55 0.55 0.49 0.43 0.41 0.34 nan nan nan
SL_Ratio
nan nan nan nan nan nan nan nan nan nan nan nan nan nan nan nan nan nan nan nan nan nan nan nan nan nan nan nan nan nan nan nan nan nan nan nan nan nan nan nan nan nan nan nan
nan nan nan nan nan nan nan nan nan nan nan nan nan nan nan nan nan nan nan nan nan nan nan nan nan nan nan nan nan nan nan nan nan nan nan nan nan nan nan nan nan nan nan nan
nan nan nan nan nan nan nan nan nan nan nan nan nan nan nan nan nan nan nan nan nan nan nan nan nan nan nan nan nan nan nan nan nan nan nan nan nan nan nan nan nan nan nan nan
nan nan nan nan nan nan nan nan nan nan nan nan nan 6.3 nan nan nan nan nan nan nan nan nan nan nan nan nan nan nan nan nan nan nan nan nan nan nan nan nan nan nan nan nan nan
nan nan nan nan nan nan nan nan nan nan nan nan nan nan nan nan nan nan nan nan nan nan nan nan nan nan nan nan nan nan nan nan nan nan nan nan nan nan nan nan nan nan nan nan
nan nan nan nan nan nan nan nan nan nan nan 6.2 nan nan nan nan nan nan nan nan nan nan nan nan nan nan nan nan nan nan nan nan nan nan nan nan nan nan nan nan nan nan nan nan
nan nan nan nan nan nan nan nan 6.0 6.3 6.8 6.3 nan 6.0 nan nan nan nan nan nan nan nan nan nan nan nan nan nan nan nan nan nan nan nan nan nan nan nan nan nan nan nan nan nan
nan 5.0 nan nan nan nan nan nan 5.9 8.9 7.4 6.3 6.0 6.8 4.7 nan nan nan nan nan nan nan nan nan nan nan nan nan nan nan nan nan nan nan nan nan nan nan nan nan nan nan nan nan
5.0 5.4 nan nan nan nan nan nan nan 6.4 9.2 7.8 5.4 nan nan nan nan nan nan nan nan nan nan nan nan nan nan nan nan nan nan nan nan nan nan nan nan nan nan nan nan nan nan nan
nan 4.9 nan nan nan nan nan nan 6.2 5.9 8.5 8.8 6.0 5.7 nan nan nan nan nan nan nan nan nan nan nan nan nan nan nan nan nan nan nan nan nan nan nan nan nan nan nan nan nan nan
nan 5.0 2.6 nan nan nan nan nan nan 7.5 6.0 7.9 8.2 7.6 nan nan nan nan nan nan nan nan nan nan nan nan nan nan nan nan nan nan nan nan nan nan nan nan nan nan nan nan nan nan
nan nan 5.6 nan nan nan nan nan nan 6.5 7.1 6.5 7.3 8.2 nan nan nan nan nan nan nan nan nan nan nan nan nan nan nan nan nan nan nan nan nan nan nan nan nan nan nan nan nan 4.1
nan 4.7 4.5 3.5 3.2 nan 5.0 nan nan nan 5.7 6.8 7.7 7.0 nan nan nan nan nan nan nan nan nan nan nan nan nan nan nan nan nan nan nan nan nan nan nan nan 5.0 nan 4.5 4.3 4.4 4.4
nan 5.3 3.2 4.5 4.0 nan 5.5 nan nan 3.2 6.1 5.1 5.4 4.4 2.0 nan nan nan nan nan nan nan nan nan nan nan nan nan nan nan nan nan nan nan nan nan nan nan 5.0 4.4 4.5 4.6 4.5 4.5
5.2 6.6 4.0 2.8 nan nan 5.0 6.3 4.2 4.9 4.5 6.8 4.7 6.0 nan nan nan nan nan nan nan nan nan nan nan nan nan nan nan nan nan nan nan nan 5.0 nan 4.4 4.6 4.6 4.7 4.8 4.8 4.8 4.5
6.4 5.2 3.7 3.7 3.3 nan 4.9 nan nan 7.5 6.0 4.0 4.2 3.9 nan nan nan nan nan nan 3.8 3.0 nan nan nan nan nan nan nan nan nan nan 5.3 5.0 5.0 5.1 4.9 5.0 5.0 5.1 5.3 5.3 5.3 5.0
6.0 3.8 6.9 6.7 3.4 4.4 7.9 4.0 nan 5.0 nan 0.0 3.0 2.6 nan 5.6 4.8 4.7 4.8 2.7 2.8 nan nan nan nan nan nan nan nan 11.7 10.0 5.4 5.4 6.0 5.4 5.3 5.4 5.6 5.6 5.4 5.4 5.4 5.2 5.1
7.6 6.6 6.6 7.0 7.4 9.1 3.7 nan nan nan nan nan nan nan nan 4.6 5.0 nan nan nan nan nan nan nan nan 15.0 nan 10.0 8.8 5.6 5.4 5.9 6.2 5.9 5.4 5.7 6.1 6.3 5.8 5.6 5.6 5.4 5.2 5.2
6.0 6.8 7.1 8.6 8.1 4.2 2.8 nan nan 6.6 6.5 nan nan 5.0 2.5 nan 6.3 nan nan nan nan nan nan nan nan nan 12.5 6.9 6.2 7.3 6.7 6.5 6.5 6.0 6.5 5.9 6.3 6.9 6.5 6.5 5.7 5.3 5.3 5.2
7.6 7.8 7.5 8.1 9.1 9.4 4.7 nan nan nan 7.0 nan nan nan 6.3 7.2 13.2 10.0 nan nan nan nan nan nan 10.0 5.9 7.0 7.4 7.6 7.3 8.2 7.7 8.0 8.2 8.1 8.1 6.8 6.9 7.0 6.0 6.2 5.5 5.4 5.4
8.5 8.4 8.2 7.8 8.5 6.1 nan nan nan 8.8 4.7 nan nan nan 7.2 11.4 8.7 7.5 nan nan nan nan nan 5.0 6.3 8.1 9.3 9.8 8.9 8.5 7.7 9.9 10.5 11.2 10.7 8.9 7.4 6.9 6.7 6.7 5.9 6.3 6.1 5.9
9.5 9.8 9.4 9.1 9.3 8.8 nan nan 9.3 6.3 nan nan 5.0 5.6 9.4 9.0 8.3 nan nan nan nan 20.0 15.0 7.4 8.6 7.9 9.0 8.6 10.6 9.0 7.8 9.6 10.8 10.3 9.7 7.4 6.9 6.7 6.4 6.2 6.4 6.2 6.3 6.3
8.6 7.9 7.6 5.6 5.1 3.0 nan 5.0 nan nan 5.6 6.0 6.5 8.9 10.3 11.4 11.1 16.3 15.0 nan 15.0 15.0 6.7 7.1 8.5 8.0 7.3 8.3 10.1 11.5 9.6 10.0 8.9 6.5 5.8 6.5 6.5 6.5 6.6 6.3 6.5 6.3 6.0 6.0
5.4 5.0 4.3 4.4 4.7 3.6 5.6 7.5 nan 4.9 5.4 6.2 6.1 8.9 8.5 15.8 13.4 7.6 7.3 8.6 8.1 7.4 8.6 8.9 8.7 8.2 9.2 8.7 9.1 11.6 11.3 8.9 5.7 6.1 6.9 6.9 6.9 6.6 6.6 5.8 5.8 5.8 5.9 5.9
2.7 4.0 4.5 4.6 2.7 2.5 3.1 4.2 nan 5.6 6.0 6.9 6.9 7.7 16.9 13.6 10.1 8.9 10.6 9.4 10.4 9.7 9.3 9.0 9.8 10.7 10.7 11.3 10.9 11.0 11.4 8.2 6.3 6.1 7.3 6.9 6.2 6.2 6.4 6.2 6.3 5.9 5.6 5.6
3.3 4.2 6.1 8.1 5.4 5.8 6.3 5.0 5.8 6.9 7.2 7.4 10.0 11.3 9.2 7.8 12.3 13.6 11.9 11.4 11.3 12.1 11.1 10.4 9.6 11.2 13.4 12.3 11.4 11.5 8.8 8.5 8.1 7.5 6.9 7.1 7.1 6.4 6.5 6.7 6.7 nan nan nan